Regional Weather Roundup
Issued by NWS Sterling, VA

Home | Current Version | Previous Version | Text Only | Print | Product List | Glossary Off
Versions: 1 2 3 4 5 6 7 8 9 10 11 12 13 14 15 16 17 18 19 20 21 22 23 24 25 26 27 28 29 30 31 32 33 34 35 36 37 38 39 40 41 42 43 44 45 46 47 48 49 50

000
ASUS41 KLWX 152010
RWRLWX

REGIONAL WEATHER ROUNDUP
NATIONAL WEATHER SERVICE BALTIMORE MD/WASHINGTON DC
400 PM EDT MON SEP 15 2014

Note: "FAIR" indicates few or no clouds below 12,000 feet
with no significant weather and/or obstructions to visibility.
 TC=TEMPERATURE CELSIUS

 * =Non NWS site. Station does not report precipitation (e.g. rain,
    snow, etc.), thunder, or fog.

DCZ001-MDZ009-015-VAZ040>042-051-053>054-152100-
WASHINGTON METRO

CITY           SKY/WX    TMP DP  RH WIND       PRES   REMARKS
WASHINGTON NAT PTSUNNY   77  49  37 S8        30.15F
DULLES         PTSUNNY   72  52  49 VRB3      30.15F
ANDREWS AFB    PTSUNNY   74  52  45 VRB7      30.15S
QUANTICO       PTSUNNY   74  54  49 S3        30.15F
COLLEGE PARK*  CLOUDY    73  54  49 NE5       30.14F
LEESBURG*      MOSUNNY   73  55  53 S3        30.15F
MANASSAS*      MOSUNNY   73  63  68 CALM      30.14
GAITHERSBURG*  MOSUNNY   70  52  52 W5        30.18F

$$

MDZ006>007-011-014-152100-
BALTIMORE METRO

CITY           SKY/WX    TMP DP  RH WIND       PRES   REMARKS
BWI AIRPORT    PTSUNNY   72  52  49 CALM      30.15F
MD SCIENCE CTR   N/A     71  51  49 MISG      30.15F
MARTIN STATE   MOSUNNY   72  54  53 SE7       30.17F
ANNAPOLIS      SUNNY     69  53  56 SE8       30.15F
FORT MEADE*    MOSUNNY   70  54  56 CALM      30.17F

$$

MDZ012-015-019>023-152100-
MARYLAND EASTERN SHORE

CITY           SKY/WX    TMP DP  RH WIND       PRES   REMARKS
OCEAN CITY     SUNNY     71  51  49 E7        30.15F
SALISBURY      SUNNY    N/A N/A N/A MISG        N/A
BAY BRIDGE AP*   N/A     72  48  43 E6        30.15F
CAMBRIDGE*     SUNNY     73  50  43 CALM      30.15S
EASTON*        MOSUNNY   73  52  46 NW5       30.18F

$$

MDZ017>025-152100-
SOUTHERN MARYLAND

CITY           SKY/WX    TMP DP  RH WIND       PRES   REMARKS
PATUXENT RIVER PTSUNNY   71  52  50 SE8       30.15F
ST INIGOES     MOSUNNY   71  54  54 SE7       30.15F
LEONARDTOWN*   CLOUDY    70  54  56 CALM      30.17S

$$

MDZ003>005-152100-
NORTH CENTRAL MARYLAND

CITY           SKY/WX    TMP DP  RH WIND       PRES   REMARKS
FREDERICK*     SUNNY     77  52  41 W9        30.17F
HAGERSTOWN APT MOSUNNY   69  47  45 VRB5      30.14F
WESTMINSTER*   MOSUNNY   70  48  46 W5        30.15F

$$

MDZ501>502-152100-
WESTERN MARYLAND

CITY           SKY/WX    TMP DP  RH WIND       PRES   REMARKS
OAKLAND*       NOT AVBL
CUMBERLAND*    MOSUNNY   77  46  33 CALM      30.17F

$$

VAZ025>031-152100-
SHENANDOAH VALLEY

CITY           SKY/WX    TMP DP  RH WIND       PRES   REMARKS
WINCHESTER*    PTSUNNY   73  52  46 SE6       30.13F
STAUNTON*      MOSUNNY   74  55  50 SE8       30.15F

$$

WVZ021-048>050-054>055-152100-
EASTERN WEST VIRGINIA PANHANDLE

CITY           SKY/WX    TMP DP  RH WIND       PRES   REMARKS
MARTINSBURG    PTSUNNY   72  48  42 S5        30.14F
PETERSBURG*    MOSUNNY   75  49  40 CALM      30.12F

$$

VAZ036>039-050-152100-
CENTRAL FOOTHILLS

CITY           SKY/WX    TMP DP  RH WIND       PRES   REMARKS
CHARLOTTESVILL MOSUNNY   73  55  53 VRB5      30.14F
ORANGE*        MOSUNNY   73  54  49 SE3       30.16S

$$

VAZ055>057-152100-
NORTH AND CENTRAL PIEDMONT

CITY           SKY/WX    TMP DP  RH WIND       PRES   REMARKS
FREDERICKSBRG* MOSUNNY   75  54  48 CALM      30.13F
STAFFORD*      MOSUNNY   74  55  51 CALM      30.18F

$$

NCZ024-NYZ072-PAZ021-071-VAZ022-071-152100-
OTHER REGIONAL OBSERVATIONS

CITY           SKY/WX    TMP DP  RH WIND       PRES   REMARKS
NEW YORK CITY  SUNNY     71  42  35 CALM      30.15F
PHILADELPHIA   MOSUNNY   71  45  39 S5        30.15F
PITTSBURGH     CLOUDY    67  46  47 SW9       30.12F
ROANOKE        PTSUNNY   72  61  68 SE10      30.15F
RICHMOND       CLOUDY    76  55  48 SE8       30.14F
RALEIGH        CLOUDY    73  62  68 SE3       30.15F

$$

ANZ530>537-152100-
MARINE OBSERVATIONS

STATION/POSITION TIME  TEMP    WIND        PRES
                       AIR SEA DIR/SP/G
                 (UTC) (F)     (DEG/KT/KT) (MB)
THOMAS PT LIGHT  2000   68 75  100/  1/  2 1022.1F
BALT KEY BRIDGE  2000   68     120/  6/  8 1020.8F
COVE POINT       2000   69     140/  3/  4 1021.0F
LEWISETTA        2000   69 75  120/ 10/ 12 1020.6F
SOLOMONS ISLAND  2000      77                N/A
PINEY POINT      2000          170/  6/  7   N/A

$$




USA.gov is the U.S. government's official web portal to all federal, state and local government web resources and services.